Location: Stonelick Lake State Park
(39.2170°N, 84.0850°W)
Time: 18:31:49
(UTC-04:00)

Amateur Radio Satellites - All Passes

Search period start: 25 September 2016 18:01
Search period end: 26 September 2016 18:01
Location: Stonelick Lake State Park, 39.2170°N, 84.0850°W

Satellite Date Start Highest point End Downlink Frequencies (MHz)
Time Altitude Azimuth
AIST 1 25 Sep 18:03:22 18:07:34 56° 266° (W) 18:11:45
AO-7 25 Sep 18:04:51 18:10:49 21° 267° (W) 18:16:49 29.400- 29.500
YUBILEINY 25 Sep 18:05:34 18:06:23 10° 287° (WNW) 18:07:11 435.215
STARS 25 Sep 18:13:32 18:17:55 85° 105° (ESE) 18:22:16 437.465
NOAA 15 25 Sep 18:24:06 18:29:05 43° 70° (ENE) 18:34:06 137.62
MOZHAYETS 4 25 Sep 18:24:46 18:28:29 24° 292° (WNW) 18:32:10
BRITE-PL 25 Sep 18:25:55 18:31:37 88° 76° (ENE) 18:37:18 437.365/2234.400
LilacSat-2 25 Sep 18:29:10 18:32:26 29° 72° (ENE) 18:35:44 437.200
GOMX 1 25 Sep 18:29:46 18:34:55 44° 72° (ENE) 18:39:53 467.674
PHONESAT 2.4 25 Sep 18:30:21 18:32:06 15° 212° (SSW) 18:33:52 2401.200-2431.200
Cubesat XI-IV 25 Sep 18:30:41 18:35:35 39° 69° (ENE) 18:40:30 437.490
CUTE-I 25 Sep 18:31:41 18:36:37 41° 70° (ENE) 18:41:34 437.470
Cosmos 2504 25 Sep 18:40:58 18:44:09 13° 281° (W) 18:47:25 435.465 / 435.565
NOAA 18 25 Sep 18:49:52 18:55:09 51° 70° (ENE) 19:00:24 137.9125
DOVE 4 25 Sep 19:05:06 19:09:53 42° 73° (ENE) 19:14:27 437.250
KKS-1 25 Sep 19:10:58 19:12:49 12° 297° (WNW) 19:14:38 437.445
RS-15 25 Sep 19:14:46 19:21:08 17° 96° (E) 19:27:37 29.354- 29.394
CUBESAT XI-V 25 Sep 19:37:01 19:41:09 31° 290° (WNW) 19:45:14 437.345
STRAND 1 25 Sep 19:37:36 19:39:33 12° 90° (E) 19:41:29 437.568
O/OREOS (USA 219) 25 Sep 19:39:09 19:42:49 24° 258° (WSW) 19:46:28 437.305
CUSAT 1 25 Sep 19:46:57 19:52:19 39° 88° (E) 19:58:53 437.405
HO-68 25 Sep 19:57:06 20:03:49 45° 66° (ENE) 20:10:33 435.675
CUTE 1.7 + AOD 2 25 Sep 20:02:11 20:05:46 27° 70° (ENE) 20:09:23 437.475
CANX-2 25 Sep 20:02:41 20:06:27 32° 71° (ENE) 20:10:14 2200.000
Cosmos 2499 25 Sep 20:03:21 20:09:27 26° 71° (ENE) 20:15:52 435.465 / 435.565
LilacSat-2 25 Sep 20:04:18 20:06:46 17° 266° (W) 20:09:16 437.200
NOAA 15 25 Sep 20:04:55 20:09:00 22° 266° (W) 20:13:08 137.62
BRITE-PL 25 Sep 20:08:40 20:10:40 12° 272° (W) 20:12:41 437.365/2234.400
SEEDS 25 Sep 20:08:50 20:12:08 23° 69° (ENE) 20:15:27 437.485
GOMX 1 25 Sep 20:08:51 20:13:04 23° 266° (W) 20:17:13 467.674
Cubesat XI-IV 25 Sep 20:11:29 20:15:45 24° 265° (W) 20:20:03 437.490
CUTE-I 25 Sep 20:12:35 20:16:46 24° 266° (W) 20:20:59 437.470
GONETS M04 25 Sep 20:24:30 20:32:52 45° 75° (ENE) 20:41:08
CUBEBUG 2 25 Sep 20:26:15 20:29:12 19° 68° (ENE) 20:32:08 437.445
NOAA 18 25 Sep 20:32:07 20:36:02 20° 266° (W) 20:39:59 137.9125
CINEMA 3 25 Sep 20:36:20 20:40:54 83° 255° (WSW) 20:45:18 145.822/145.860
AAUSAT CUBESAT 2 25 Sep 20:38:48 20:42:14 26° 70° (ENE) 20:45:43 437.432
DOVE 4 25 Sep 20:43:51 20:47:39 21° 266° (W) 20:51:21 437.250
FUNcube-1 25 Sep 20:46:13 20:47:34 11° 64° (ENE) 20:48:56 145.935
UWE-3 25 Sep 20:49:30 20:52:44 22° 69° (ENE) 20:55:56 435.000/436.395/437.385
DANDE 25 Sep 20:53:17 20:57:47 48° 91° (E) 21:03:47 436.750
STRAND 1 25 Sep 21:14:05 21:19:14 74° 285° (WNW) 21:24:22 437.568
COMPASS 1 25 Sep 21:19:38 21:23:48 80° 258° (WSW) 21:28:01 437.405
RS-15 25 Sep 21:19:51 21:31:20 77° 117° (ESE) 21:43:30 29.354- 29.394
ZACube-1 25 Sep 21:24:06 21:27:49 33° 71° (ENE) 21:31:32 437.345
Oscar 11 25 Sep 21:26:45 21:30:40 36° 71° (ENE) 21:34:38 145.826/435.025
CUSAT 1 25 Sep 21:28:54 21:34:21 35° 291° (WNW) 21:40:57 437.405
CUTE 1.7 + AOD 2 25 Sep 21:38:13 21:41:34 23° 265° (W) 21:44:58 437.475
CANX-2 25 Sep 21:39:16 21:42:21 19° 266° (W) 21:45:28 2200.000
ISS 25 Sep 21:40:15 21:43:19 41° 137° (SE) 21:46:26 145.825
SEEDS 25 Sep 21:44:05 21:47:41 28° 264° (W) 21:51:20 437.485
HO-68 25 Sep 21:45:18 21:51:37 33° 263° (W) 21:57:59 435.675
AO-85 25 Sep 21:50:22 21:55:02 33° 114° (ESE) 21:59:29 145.980
Cosmos 2499 25 Sep 21:55:34 22:02:54 58° 268° (W) 22:10:48 435.465 / 435.565
CUBEBUG 2 25 Sep 22:01:45 22:05:36 33° 262° (W) 22:09:25 437.445
HUMSAT D 25 Sep 22:07:26 22:10:21 19° 68° (ENE) 22:13:17 437.325/437.525
PRISM 25 Sep 22:09:05 22:13:00 40° 99° (E) 22:16:52 437.425
AAUSAT CUBESAT 2 25 Sep 22:14:18 22:17:39 24° 265° (W) 22:21:03 437.432
FUNcube-1 25 Sep 22:19:14 22:23:18 57° 259° (W) 22:27:23 145.935
DELFI C3 25 Sep 22:19:50 22:23:44 55° 74° (ENE) 22:27:40 145.870
GONETS M04 25 Sep 22:21:37 22:29:29 38° 274° (W) 22:37:17
UWE-3 25 Sep 22:25:27 22:29:03 28° 264° (W) 22:32:39 435.000/436.395/437.385
DANDE 25 Sep 22:37:20 22:41:10 21° 297° (WNW) 22:45:48 436.750
TIGRISAT 25 Sep 22:47:45 22:49:50 13° 92° (E) 22:51:56 435.000
ZACube-1 25 Sep 23:01:20 23:04:11 18° 266° (W) 23:07:02 437.345
Oscar 11 25 Sep 23:03:56 23:06:54 18° 267° (W) 23:09:54 145.826/435.025
ISS 25 Sep 23:17:11 23:19:55 24° 333° (NNW) 23:22:40 145.825
UNISAT 6 25 Sep 23:25:52 23:29:58 38° 98° (E) 23:34:08 437.425
AO-85 25 Sep 23:30:47 23:35:28 33° 309° (NW) 23:39:53 145.980
RS-15 25 Sep 23:34:28 23:45:05 37° 322° (NW) 23:56:09 29.354- 29.394
HUMSAT D 25 Sep 23:42:08 23:45:45 31° 263° (W) 23:49:25 437.325/437.525
ESTCUBE 1 25 Sep 23:42:30 23:46:39 37° 71° (ENE) 23:50:51 437.505/2401.250
PRISM 25 Sep 23:45:26 23:47:57 16° 295° (WNW) 23:50:27 437.425
M-CUBED/EXP-1 PRIME 25 Sep 23:46:52 23:50:09 22° 65° (ENE) 23:53:16 437.505
VELOX 1 25 Sep 23:52:52 23:56:26 24° 68° (ENE) 00:00:00 145.980
DX 1 25 Sep 23:54:00 23:56:39 16° 65° (ENE) 23:59:17 434.975-435.025
DELFI C3 25 Sep 23:58:43 23:58:54 10° 270° (W) 23:59:04 145.870
JUGNU 26 Sep 00:01:10 00:02:24 11° 180° (S) 00:03:39 437.505
ANTELSAT 26 Sep 00:01:10 00:05:34 86° 285° (WNW) 00:10:04 437.575/2403.000
CUBEBUG 1 26 Sep 00:02:47 00:06:53 38° 72° (ENE) 00:10:59 437.445
NANOSAT C BR1 26 Sep 00:07:12 00:08:44 12° 91° (E) 00:10:16 145.865
TIGRISAT 26 Sep 00:22:32 00:26:47 52° 286° (WNW) 00:31:07 435.000
QB50P2 26 Sep 00:26:42 00:30:05 23° 95° (E) 00:33:29 145.880/145.840
POLYITAN 1 26 Sep 00:28:55 00:32:19 23° 95° (E) 00:35:43 437.675
50 SAT 26 Sep 00:32:13 00:35:46 59° 75° (ENE) 00:39:23 437.505
SO-50 26 Sep 00:42:32 00:46:15 23° 47° (NE) 00:49:53 436.795
AISAT 26 Sep 00:44:16 00:48:44 88° 259° (W) 00:53:13 437.250
AUBIESAT-1 26 Sep 00:44:59 00:49:11 86° 68° (ENE) 00:53:05 437.475
TISAT 1 26 Sep 00:51:51 00:52:39 10° 63° (ENE) 00:53:29 437.305
JAS-2 26 Sep 00:54:18 01:01:44 43° 96° (E) 01:08:49 435.910
SPROUT 26 Sep 00:54:46 00:58:58 60° 75° (ENE) 01:03:11 437.525
ISS 26 Sep 00:56:54 00:57:20 10° 353° (N) 00:57:46 145.825
UNISAT 6 26 Sep 01:03:20 01:06:25 19° 293° (WNW) 01:09:32 437.425
UKube-1 26 Sep 01:03:59 01:08:17 71° 75° (ENE) 01:12:37 .
QB50P1 26 Sep 01:09:16 01:13:28 70° 102° (ESE) 01:17:40 145.935-145.965
DUCHIFAT 1 26 Sep 01:09:50 01:13:58 61° 101° (E) 01:18:07 145.980
ESTCUBE 1 26 Sep 01:20:17 01:23:33 20° 266° (W) 01:26:52 437.505/2401.250
M-CUBED/EXP-1 PRIME 26 Sep 01:20:48 01:24:31 29° 257° (WSW) 01:28:03 437.505
BUGSAT 1 26 Sep 01:22:20 01:25:56 31° 97° (E) 01:29:31 437.445
POPSAT HIP 1 26 Sep 01:22:34 01:26:47 83° 282° (WNW) 01:30:59 437.405
DX 1 26 Sep 01:28:13 01:32:25 46° 260° (W) 01:36:40 434.975-435.025
VELOX 1 26 Sep 01:28:49 01:32:44 30° 263° (W) 01:36:40 145.980
BEESAT 3 26 Sep 01:38:01 01:41:03 22° 112° (ESE) 01:44:06 437.485
CUBEBUG 1 26 Sep 01:40:16 01:43:17 18° 267° (W) 01:46:19 437.445
NANOSAT C BR1 26 Sep 01:40:40 01:44:45 53° 286° (WNW) 01:48:50 145.865
SWISSCUBE 26 Sep 01:51:06 01:52:57 12° 61° (ENE) 01:54:49 437.505
RS-15 26 Sep 01:54:34 02:02:48 20° 356° (N) 02:11:08 29.354- 29.394
QB50P2 26 Sep 02:02:17 02:05:50 27° 291° (WNW) 02:09:24 145.880/145.840
BEESAT 26 Sep 02:03:30 02:06:06 15° 63° (ENE) 02:08:44 436.000
POLYITAN 1 26 Sep 02:04:31 02:08:04 27° 290° (WNW) 02:11:37 437.675
Cosmos 2491 26 Sep 02:07:14 02:14:48 30° 70° (ENE) 02:22:16 435.465 / 435.565
SO-50 26 Sep 02:22:36 02:26:51 39° 245° (WSW) 02:30:59 436.795
TISAT 1 26 Sep 02:23:33 02:27:43 67° 258° (WSW) 02:31:54 437.305
BEESAT 2 26 Sep 02:27:59 02:31:39 39° 116° (ESE) 02:35:22 435.950
ISS 26 Sep 02:33:35 02:35:02 12° 14° (NNE) 02:36:28 145.825
SPROUT 26 Sep 02:34:19 02:35:16 11° 270° (W) 02:36:12 437.525
Oscar 19 26 Sep 02:38:09 02:43:03 42° 99° (E) 02:47:53 437.125/150
JAS-2 26 Sep 02:39:22 02:46:34 41° 294° (WNW) 02:53:33 435.910
SRMSAT 26 Sep 02:41:22 02:42:39 11° 182° (S) 02:43:56 437.500
DUCHIFAT 1 26 Sep 02:47:48 02:49:08 11° 296° (WNW) 02:50:28 145.980
QB50P1 26 Sep 02:48:23 02:48:39 10° 297° (WNW) 02:48:55 145.935-145.965
BUGSAT 1 26 Sep 02:58:17 03:01:05 19° 293° (WNW) 03:03:53 437.445
YUBILEINY 26 Sep 03:07:02 03:14:18 30° 83° (E) 03:21:32 435.215
ITUPSAT 1 26 Sep 03:11:01 03:15:44 70° 74° (ENE) 03:20:30 437.325
BEESAT 3 26 Sep 03:15:05 03:18:32 29° 309° (NW) 03:22:01 437.485
Gurwin Techsat 1B 26 Sep 03:17:40 03:22:48 47° 99° (E) 03:27:54 435.225
SWISSCUBE 26 Sep 03:25:22 03:30:06 73° 257° (WSW) 03:34:54 437.505
ITAMSAT 1 26 Sep 03:27:46 03:30:45 15° 92° (E) 03:33:45 435.822/435.867
Cosmos 2504 26 Sep 03:34:20 03:36:47 12° 78° (ENE) 03:39:14 435.465 / 435.565
BEESAT 26 Sep 03:38:42 03:43:23 59° 259° (W) 03:48:05 436.000
MOZHAYETS 4 26 Sep 03:48:18 03:52:08 27° 69° (ENE) 03:56:00
Cosmos 2491 26 Sep 04:03:28 04:12:04 58° 269° (W) 04:20:36 435.465 / 435.565
BEESAT 2 26 Sep 04:06:44 04:09:37 19° 313° (NW) 04:12:30 435.950
ISS 26 Sep 04:09:04 04:12:13 41° 33° (NNE) 04:15:21 145.825
RS-15 26 Sep 04:10:39 04:21:09 30° 32° (NNE) 04:31:31 29.354- 29.394
AO-7 26 Sep 04:12:48 04:19:28 26° 95° (E) 04:26:05 29.400- 29.500
Oscar 19 26 Sep 04:18:06 04:22:05 23° 295° (WNW) 04:26:02 437.125/150
KKS-1 26 Sep 04:29:08 04:33:25 49° 73° (ENE) 04:37:44 437.445
AIST 2 26 Sep 04:31:32 04:35:04 28° 113° (ESE) 04:38:37 435.215
ITUPSAT 1 26 Sep 04:52:38 04:54:02 11° 270° (W) 04:55:26 437.325
Gurwin Techsat 1B 26 Sep 04:58:26 05:02:23 22° 295° (WNW) 05:06:20 435.225
YUBILEINY 26 Sep 05:01:58 05:10:33 56° 282° (WNW) 05:19:09 435.215
CUBESAT XI-V 26 Sep 05:02:21 05:05:58 22° 67° (ENE) 05:09:36 437.345
PCSat 26 Sep 05:03:03 05:07:45 31° 109° (ESE) 05:12:28 145.827
ITAMSAT 1 26 Sep 05:05:27 05:10:36 61° 287° (WNW) 05:15:44 435.822/435.867
STARS 26 Sep 05:08:45 05:13:05 64° 74° (ENE) 05:17:26 437.465
Cosmos 2504 26 Sep 05:21:29 05:29:00 84° 96° (E) 05:36:13 435.465 / 435.565
MOZHAYETS 4 26 Sep 05:25:21 05:29:13 27° 264° (W) 05:33:07
HORYU 2 26 Sep 05:42:55 05:45:21 14° 92° (E) 05:47:47 437.375
ISS 26 Sep 05:46:01 05:48:31 20° 228° (SW) 05:51:00 145.825
AO-7 26 Sep 06:04:33 06:12:44 65° 292° (WNW) 06:20:53 29.400- 29.500
KKS-1 26 Sep 06:07:51 06:10:15 14° 268° (W) 06:12:39 437.445
AIST 2 26 Sep 06:10:02 06:13:30 26° 310° (NW) 06:17:00 435.215
CUSAT 1 26 Sep 06:22:14 06:29:03 32° 68° (ENE) 06:35:02 437.405
RS-15 26 Sep 06:23:21 06:35:50 83° 58° (ENE) 06:47:58 29.354- 29.394
AO-85 26 Sep 06:23:49 06:26:46 18° 45° (NE) 06:29:36 145.980
AIST 1 26 Sep 06:30:53 06:35:17 88° 88° (E) 06:39:42
BRITE-PL 26 Sep 06:33:17 06:37:31 29° 94° (E) 06:41:27 437.365/2234.400
GOMX 1 26 Sep 06:35:48 06:36:55 11° 89° (E) 06:38:00 467.674
CUBESAT XI-V 26 Sep 06:38:49 06:43:06 36° 263° (W) 06:47:27 437.345
NOAA 15 26 Sep 06:41:22 06:44:48 17° 92° (E) 06:48:13 137.62
PCSat 26 Sep 06:46:03 06:51:01 36° 306° (NW) 06:56:01 145.827
STARS 26 Sep 06:49:00 06:49:50 10° 269° (W) 06:50:40 437.465
Cubesat XI-IV 26 Sep 06:49:54 06:53:19 17° 92° (E) 06:56:43 437.490
CUTE-I 26 Sep 06:50:40 06:54:11 18° 92° (E) 06:57:41 437.470
STRAND 1 26 Sep 06:52:02 06:55:15 17° 63° (ENE) 06:58:28 437.568
NOAA 18 26 Sep 07:13:34 07:17:50 23° 95° (E) 07:22:05 137.9125
HORYU 2 26 Sep 07:17:52 07:22:09 49° 287° (WNW) 07:26:27 437.375
Cosmos 2504 26 Sep 07:19:01 07:23:14 16° 294° (WNW) 07:27:24 435.465 / 435.565
DANDE 26 Sep 07:31:19 07:39:23 48° 74° (ENE) 07:47:01 436.750
LilacSat-2 26 Sep 07:37:02 07:40:46 51° 99° (E) 07:44:32 437.200
AO-7 26 Sep 08:00:01 08:03:55 14° 313° (NW) 08:07:49 29.400- 29.500
AO-85 26 Sep 08:03:33 08:07:25 41° 245° (WSW) 08:11:04 145.980
CUSAT 1 26 Sep 08:03:56 08:11:23 51° 269° (W) 08:17:43 437.405
O/OREOS (USA 219) 26 Sep 08:10:22 08:14:39 44° 106° (ESE) 08:19:00 437.305
GOMX 1 26 Sep 08:11:07 08:15:30 57° 286° (WNW) 08:19:38 467.674
BRITE-PL 26 Sep 08:11:52 08:15:53 26° 293° (WNW) 08:19:38 437.365/2234.400
NOAA 15 26 Sep 08:19:43 08:24:54 55° 288° (WNW) 08:30:02 137.62
Cubesat XI-IV 26 Sep 08:28:29 08:33:43 57° 288° (WNW) 08:38:57 437.490
STRAND 1 26 Sep 08:28:56 08:33:56 57° 259° (W) 08:38:58 437.568
CUTE-I 26 Sep 08:29:19 08:34:32 56° 288° (WNW) 08:39:45 437.470
CINEMA 3 26 Sep 08:32:30 08:35:47 22° 95° (E) 08:39:07 145.822/145.860
RS-15 26 Sep 08:37:31 08:46:52 27° 259° (W) 08:56:04 29.354- 29.394
Cosmos 2499 26 Sep 08:41:16 08:45:55 19° 82° (E) 08:50:29 435.465 / 435.565
DOVE 4 26 Sep 08:42:41 08:46:52 62° 285° (WNW) 08:50:56 437.250
NOAA 18 26 Sep 08:53:29 08:58:39 44° 290° (WNW) 09:03:48 137.9125
PRISM 26 Sep 08:57:33 09:01:00 26° 69° (ENE) 09:04:29 437.425
COMPASS 1 26 Sep 09:04:28 09:07:20 18° 93° (E) 09:10:11 437.405
HO-68 26 Sep 09:13:02 09:19:59 52° 101° (E) 09:26:54 435.675
LilacSat-2 26 Sep 09:13:33 09:14:36 11° 295° (WNW) 09:15:38 437.200
DANDE 26 Sep 09:14:25 09:21:57 39° 272° (W) 09:29:06 436.750
CUTE 1.7 + AOD 2 26 Sep 09:22:59 09:27:16 64° 100° (E) 09:31:31 437.475
GONETS M04 26 Sep 09:23:44 09:32:12 54° 90° (E) 09:40:43
CANX-2 26 Sep 09:23:48 09:28:07 77° 101° (E) 09:32:25 2200.000
SEEDS 26 Sep 09:28:13 09:32:23 49° 99° (E) 09:36:30 437.485
TIGRISAT 26 Sep 09:47:31 09:48:04 10° 63° (ENE) 09:48:36 435.000
O/OREOS (USA 219) 26 Sep 09:51:05 09:54:18 18° 303° (WNW) 09:57:31 437.305
CUBEBUG 2 26 Sep 09:52:42 09:56:51 48° 99° (E) 10:01:06 437.445
AAUSAT CUBESAT 2 26 Sep 09:56:33 10:00:41 55° 100° (E) 10:04:47 437.432
BEESAT 3 26 Sep 09:56:38 09:58:20 12° 43° (NE) 10:00:01 437.485
FUNcube-1 26 Sep 10:08:10 10:11:52 27° 96° (E) 10:15:38 145.935
CINEMA 3 26 Sep 10:09:24 10:12:55 27° 290° (WNW) 10:16:28 145.822/145.860
UWE-3 26 Sep 10:14:54 10:19:08 57° 100° (E) 10:23:28 435.000/436.395/437.385
UNISAT 6 26 Sep 10:24:01 10:27:41 28° 70° (ENE) 10:31:21 437.425
Cosmos 2499 26 Sep 10:31:05 10:38:15 67° 279° (W) 10:45:17 435.465 / 435.565
PRISM 26 Sep 10:32:50 10:36:14 24° 264° (W) 10:39:40 437.425
COMPASS 1 26 Sep 10:39:07 10:42:59 35° 288° (WNW) 10:46:49 437.405
BEESAT 2 26 Sep 10:47:12 10:50:09 19° 47° (NE) 10:53:06 435.950
ZACube-1 26 Sep 10:48:37 10:52:57 87° 104° (ESE) 10:57:22 437.345
Oscar 11 26 Sep 10:50:26 10:54:48 87° 99° (E) 10:59:10 145.826/435.025
ANTELSAT 26 Sep 10:58:49 11:03:05 71° 75° (ENE) 11:07:19 437.575/2403.000
CUTE 1.7 + AOD 2 26 Sep 11:01:09 11:02:32 11° 296° (WNW) 11:03:56 437.475
HO-68 26 Sep 11:01:20 11:07:21 30° 298° (WNW) 11:13:20 435.675
SEEDS 26 Sep 11:05:24 11:07:38 14° 295° (WNW) 11:09:51 437.485
JAS-2 26 Sep 11:07:26 11:11:23 17° 55° (NE) 11:15:34 435.910
QB50P2 26 Sep 11:19:05 11:21:41 16° 66° (ENE) 11:24:18 145.880/145.840
TIGRISAT 26 Sep 11:19:55 11:24:10 69° 258° (WSW) 11:28:25 435.000
POLYITAN 1 26 Sep 11:21:19 11:23:56 16° 66° (ENE) 11:26:31 437.675
GONETS M04 26 Sep 11:21:39 11:29:20 33° 289° (WNW) 11:37:05
HUMSAT D 26 Sep 11:25:50 11:29:52 41° 98° (E) 11:33:54 437.325/437.525
CUBEBUG 2 26 Sep 11:30:47 11:33:05 14° 294° (WNW) 11:35:25 437.445
BEESAT 3 26 Sep 11:32:29 11:36:27 73° 241° (WSW) 11:40:24 437.485
DELFI C3 26 Sep 11:32:53 11:36:55 74° 284° (WNW) 11:40:54 145.870
AAUSAT CUBESAT 2 26 Sep 11:33:55 11:35:39 12° 296° (WNW) 11:37:24 437.432
FUNcube-1 26 Sep 11:44:29 11:48:00 25° 291° (WNW) 11:51:33 145.935
UWE-3 26 Sep 11:53:15 11:55:08 13° 295° (WNW) 11:57:02 435.000/436.395/437.385
QB50P1 26 Sep 12:00:28 12:04:27 43° 73° (ENE) 12:08:27 145.935-145.965
DUCHIFAT 1 26 Sep 12:00:33 12:04:24 37° 72° (ENE) 12:08:16 145.980
UNISAT 6 26 Sep 12:01:02 12:04:23 22° 265° (W) 12:07:45 437.425
BUGSAT 1 26 Sep 12:11:29 12:14:31 20° 68° (ENE) 12:17:32 437.445
POPSAT HIP 1 26 Sep 12:13:38 12:17:46 61° 75° (ENE) 12:21:55 437.405
BEESAT 2 26 Sep 12:24:21 12:28:07 39° 244° (WSW) 12:31:51 435.950
PHONESAT 2.4 26 Sep 12:30:24 12:33:11 39° 158° (SSE) 12:35:59 2401.200-2431.200
NANOSAT C BR1 26 Sep 12:31:12 12:35:24 86° 259° (W) 12:39:36 145.865
AISAT 26 Sep 12:36:27 12:39:32 18° 94° (E) 12:42:36 437.250
SPROUT 26 Sep 12:44:15 12:45:18 11° 90° (E) 12:46:21 437.525
JAS-2 26 Sep 12:48:55 12:55:13 90° 226° (SW) 13:02:27 435.910
QB50P2 26 Sep 12:53:11 12:57:09 41° 261° (W) 13:01:09 145.880/145.840
AIST 2 26 Sep 12:54:01 12:56:47 17° 45° (NE) 12:59:33 435.215
UKube-1 26 Sep 12:54:05 12:55:53 12° 92° (E) 12:57:41 .
POLYITAN 1 26 Sep 12:55:26 12:59:23 40° 261° (W) 13:03:22 437.675
M-CUBED/EXP-1 PRIME 26 Sep 13:01:45 13:03:26 13° 99° (E) 13:05:07 437.505
HUMSAT D 26 Sep 13:02:28 13:05:09 17° 294° (WNW) 13:07:50 437.325/437.525
ESTCUBE 1 26 Sep 13:12:13 13:16:47 86° 288° (WNW) 13:21:18 437.505/2401.250
DX 1 26 Sep 13:17:32 13:21:23 30° 97° (E) 13:25:13 434.975-435.025
VELOX 1 26 Sep 13:19:17 13:23:37 53° 100° (E) 13:27:53 145.980
YUBILEINY 26 Sep 13:19:45 13:23:22 13° 59° (ENE) 13:26:58 435.215
CUBEBUG 1 26 Sep 13:28:10 13:32:32 89° 269° (W) 13:36:50 437.445
50 SAT 26 Sep 13:34:12 13:37:53 87° 102° (ESE) 13:41:32 437.505
DUCHIFAT 1 26 Sep 13:37:34 13:40:13 16° 267° (W) 13:42:53 145.980
QB50P1 26 Sep 13:38:08 13:40:26 14° 268° (W) 13:42:44 145.935-145.965
BUGSAT 1 26 Sep 13:46:03 13:49:41 30° 263° (W) 13:53:19 437.445
PCSat 26 Sep 13:51:48 13:56:02 22° 49° (NE) 14:00:13 145.827
Oscar 19 26 Sep 13:53:43 13:58:47 55° 72° (ENE) 14:03:52 437.125/150
POPSAT HIP 1 26 Sep 13:53:49 13:53:55 10° 270° (W) 13:54:01 437.405
AUBIESAT-1 26 Sep 13:58:57 14:02:15 70° 107° (ESE) 14:05:32 437.475
PHONESAT 2.4 26 Sep 14:06:18 14:09:16 71° 356° (N) 14:12:13 2401.200-2431.200
TISAT 1 26 Sep 14:09:13 14:12:14 19° 94° (E) 14:15:16 437.305
AISAT 26 Sep 14:12:05 14:16:07 36° 289° (WNW) 14:20:07 437.250
SPROUT 26 Sep 14:17:24 14:21:35 58° 285° (WNW) 14:25:45 437.525
UKube-1 26 Sep 14:28:01 14:32:14 53° 287° (WNW) 14:36:25 .
AIST 2 26 Sep 14:31:28 14:35:33 53° 243° (WSW) 14:39:38 435.215
M-CUBED/EXP-1 PRIME 26 Sep 14:35:15 14:38:03 26° 294° (WNW) 14:40:51 437.505
Gurwin Techsat 1B 26 Sep 14:37:35 14:42:50 68° 74° (ENE) 14:48:07 435.225
JAS-2 26 Sep 14:38:25 14:41:24 13° 276° (W) 14:44:32 435.910
ITAMSAT 1 26 Sep 14:44:28 14:48:23 22° 65° (ENE) 14:52:17 435.822/435.867
DX 1 26 Sep 14:54:02 14:57:23 22° 293° (WNW) 15:00:44 434.975-435.025
VELOX 1 26 Sep 14:57:18 14:59:36 14° 296° (WNW) 15:01:53 145.980
Cosmos 2491 26 Sep 15:07:15 15:14:56 36° 85° (E) 15:22:39 435.465 / 435.565
AO-7 26 Sep 15:10:40 15:17:55 35° 60° (ENE) 15:25:10 29.400- 29.500
YUBILEINY 26 Sep 15:13:12 15:21:55 71° 81° (E) 15:30:34 435.215
ITUPSAT 1 26 Sep 15:13:27 15:16:54 19° 94° (E) 15:20:21 437.325
Cosmos 2504 26 Sep 15:14:52 15:20:58 27° 71° (ENE) 15:27:20 435.465 / 435.565
SWISSCUBE 26 Sep 15:26:52 15:31:07 30° 97° (E) 15:35:20 437.505
PCSat 26 Sep 15:34:28 15:39:46 55° 246° (WSW) 15:45:01 145.827
Oscar 19 26 Sep 15:35:07 15:38:25 17° 268° (W) 15:41:44 437.125/150
BEESAT 26 Sep 15:39:53 15:44:20 37° 98° (E) 15:48:45 436.000
PHONESAT 2.4 26 Sep 15:42:32 15:45:29 81° 9° (N) 15:48:28 2401.200-2431.200
TISAT 1 26 Sep 15:44:14 15:47:55 31° 290° (WNW) 15:51:37 437.305
Gurwin Techsat 1B 26 Sep 16:20:33 16:23:15 14° 270° (W) 16:25:56 435.225
ITAMSAT 1 26 Sep 16:22:37 16:27:31 44° 261° (W) 16:32:28 435.822/435.867
SO-50 26 Sep 16:34:45 16:39:36 83° 120° (ESE) 16:44:25 436.795
AIST 1 26 Sep 16:39:56 16:43:00 19° 73° (ENE) 16:46:03
HORYU 2 26 Sep 16:40:52 16:42:45 13° 63° (ENE) 16:44:40 437.375
ITUPSAT 1 26 Sep 16:50:21 16:54:53 42° 289° (WNW) 16:59:24 437.325
STARS 26 Sep 17:01:08 17:02:56 12° 92° (E) 17:04:42 437.465
AO-7 26 Sep 17:02:16 17:10:20 53° 258° (WSW) 17:18:26 29.400- 29.500
Cosmos 2491 26 Sep 17:03:04 17:11:27 48° 284° (WNW) 17:19:57 435.465 / 435.565
SWISSCUBE 26 Sep 17:04:45 17:08:47 27° 292° (WNW) 17:12:47 437.505
Cosmos 2504 26 Sep 17:07:27 17:14:38 55° 269° (W) 17:22:19 435.465 / 435.565
YUBILEINY 26 Sep 17:11:31 17:17:48 23° 279° (W) 17:24:05 435.215
BEESAT 26 Sep 17:18:11 17:21:53 23° 294° (WNW) 17:25:34 436.000
PHONESAT 2.4 26 Sep 17:18:51 17:21:29 29° 206° (SSW) 17:24:06 2401.200-2431.200
MOZHAYETS 4 26 Sep 17:20:22 17:25:02 75° 101° (E) 17:29:40
GOMX 1 26 Sep 17:41:20 17:44:29 16° 64° (ENE) 17:47:34 467.674
BRITE-PL 26 Sep 17:41:30 17:46:39 36° 70° (ENE) 17:51:44 437.365/2234.400
